#timestamp,LO_Frequency,Hit,StdDev 
1650826815.8,286046990.3,P
1650826835.6,286046992.9,N
1650826855.5,286046995.4,N
1650826875.3,286046993.0,N
1650826895.1,286046993.5,N
1650826915.9,286046998.9,N
1650826935.7,286047004.0,N
1650826955.6,286047003.2,N
1650826975.4,286047001.5,N
1650826995.2,286047005.3,N
1650827015.1,286047005.5,N
1650827016.0,286047005.5,N
1650827035.8,286046999.9,N
1650827055.6,286046999.9,N
1650827075.5,286047001.8,N
1650827095.3,286047004.4,N
1650827115.2,286047003.8,N
1650827135.9,286046998.6,N
1650827155.7,286046998.2,N
1650827175.6,286047002.2,N
1650827195.4,286047006.3,N
1650827215.2,286047003.6,N
1650827235.1,286047004.2,N
1650827236.0,286047004.2,N
1650827255.8,286047007.3,N
1650827275.7,286047000.8,N
1650827295.5,286046998.8,N
1650827315.3,286046997.5,N
1650827335.2,286046994.0,N
1650827355.9,286046991.9,N
1650827375.7,286046993.5,N
1650827395.6,286046999.6,N
1650827415.4,286047000.8,N
1650827435.2,286047001.8,N
1650827455.1,286046998.8,N
1650827456.0,286046998.8,N
1650827475.8,286047004.2,N
1650827495.7,286047001.3,N
1650827515.5,286047001.7,N
1650827535.3,286047007.2,N
1650827555.2,286047006.6,N
1650827575.0,286047007.7,N
1650827575.9,286047007.7,N
1650827595.8,286047007.3,N
1650827615.6,286047009.8,N
1650827635.4,286047006.3,N
1650827655.3,286047006.9,N
1650827675.1,286047006.3,N
1650827695.8,286047007.9,N
1650827715.7,286047008.5,N
1650827735.5,286047007.0,N
1650827755.3,286047009.1,N
1650827775.2,286047007.0,N
1650827795.0,286047007.0,N
1650827795.9,286047007.0,N
1650827815.8,286047005.2,N
1650827835.6,286047004.7,N
1650827855.4,286047003.2,N
1650827875.3,286047002.6,N
1650827895.1,286047003.7,N
1650827915.9,286047002.1,N
1650827935.7,286047002.6,N
1650827955.5,286046998.4,N
1650827975.4,286047000.4,N
1650827995.2,286047000.6,N
1650828015.0,286046998.5,N
1650828015.9,286046998.5,N
1650828035.8,286046997.0,N
1650828055.6,286046994.9,N
1650828075.5,286046993.0,N
1650828095.3,286046991.5,N
1650828115.1,286046991.2,N
1650828135.9,286046997.8,N
1650828155.7,286046996.7,N
1650828175.5,286046993.2,N
1650828195.4,286046991.9,N
1650828215.2,286046989.2,N
1650828235.0,286046989.1,N
1650828236.0,286046989.1,N
1650828255.8,286046987.2,N
1650828275.6,286046988.7,N
1650828295.5,286046990.0,N
1650828315.3,286046993.1,N
1650828335.1,286046991.8,N
1650828355.9,286046995.8,N
1650828375.7,286046995.4,N
1650828395.5,286046997.9,N
1650828415.4,286046997.1,N
1650828435.2,286046993.6,N
1650828455.1,286046993.9,N
1650828456.0,286046993.9,N
1650828475.8,286046986.3,Y
1650828495.6,286046995.2,P
1650828515.5,286046997.0,P
1650828535.3,286046995.3,P
1650828555.2,286046992.7,Y
1650828575.9,286046996.6,P
1650828595.7,286046999.0,N
1650828615.6,286047002.9,N
1650828635.4,286047001.6,N
1650828655.2,286047002.9,N
1650828675.1,286047007.4,N
1650828676.0,286047007.4,N
1650828695.8,286047003.2,N
1650828715.7,286047004.8,N
1650828735.5,286047006.4,N
1650828755.3,286047008.9,N
1650828775.2,286047008.0,N
1650828795.0,286047007.5,N
1650828795.9,286047007.5,N
1650828815.7,286047001.4,N
1650828835.6,286047001.5,N
1650828855.4,286047004.8,N
1650828875.3,286047006.8,N
1650828895.1,286047006.8,N
1650828896.0,286047006.8,N
1650828915.8,286047007.2,N
1650828935.7,286047001.3,N
1650828955.5,286047000.6,N
1650828975.3,286046993.5,N
1650828995.2,286046997.6,N
1650829015.0,286046999.3,N
1650829015.9,286046999.3,N
1650829035.8,286046999.4,N
1650829055.6,286047003.4,N
1650829075.4,286047000.0,N
1650829095.3,286046998.6,N
1650829115.1,286047001.7,N
1650829135.9,286047002.5,N
1650829155.7,286047004.3,N
1650829175.5,286047003.9,N
1650829195.4,286047001.8,N
1650829215.2,286046999.9,N
1650829235.0,286047001.4,N
1650829235.9,286047001.4,N
1650829255.8,286047004.9,N
1650829275.6,286047005.0,N
1650829295.5,286047000.0,N
1650829315.3,286047002.0,N
1650829335.1,286047002.0,N
1650829355.9,286047003.3,N
1650829375.7,286047008.5,N
1650829395.5,286047005.8,N
1650829415.4,286047001.8,N
1650829435.2,286046999.5,N
1650829455.1,286047002.2,N
1650829456.0,286047002.2,N
1650829475.8,286047002.3,N
1650829495.6,286047003.0,N
1650829515.5,286047005.9,N
1650829535.3,286047003.7,N
1650829555.1,286046999.0,N
1650829575.9,286046994.1,N
1650829595.7,286046991.8,Y
1650829615.6,286046987.1,P
1650829635.4,286046988.5,N
1650829655.2,286046995.3,N
1650829675.1,286046997.4,N
1650829676.0,286046997.4,N
1650829695.8,286046998.2,N
1650829715.6,286046999.5,N
1650829735.5,286046997.1,N
1650829755.3,286047002.7,N
1650829775.2,286047001.8,N
1650829795.9,286046997.5,N
1650829815.7,286046995.9,N
1650829835.6,286046993.3,N
1650829855.4,286046997.5,N
1650829875.2,286046996.3,N
1650829895.1,286046991.4,N
1650829896.0,286046991.4,N
1650829915.8,286046983.9,Y
1650829935.7,286046987.7,P
1650829955.5,286046992.5,N
1650829975.3,286047001.1,N
1650829995.2,286047000.1,N
1650830015.0,286047006.0,N
1650830015.9,286047006.0,N
1650830035.7,286047004.5,N
1650830055.6,286047005.6,N
1650830075.4,286047004.1,N
1650830095.3,286047003.2,N
1650830115.1,286047004.4,N
1650830116.0,286047004.4,N
1650830135.8,286046998.5,N
1650830155.7,286047000.7,N
1650830175.5,286046996.5,N
1650830195.3,286047000.6,N
1650830215.2,286047003.8,N
1650830235.0,286047003.3,N
1650830235.9,286047003.3,N
1650830255.8,286047001.4,N
1650830275.6,286047005.7,N
1650830295.4,286047003.0,N
1650830315.3,286047005.9,N
1650830335.1,286046998.7,N
1650830355.8,286046992.3,N
1650830375.7,286046992.3,N
1650830395.5,286046989.9,N
